User: anonymous   Login
Location: Unspecified
(0.0000°N, 0.0000°E)
Time: 09:11:00
(UTC+00:00)
Language:

CBERS 2 - Orbit

View from above orbital plane
View from above orbital plane
View from above satellite
View from above satellite

Ground track
Ground track

The orbit data is extracted from the following two-line orbital elements,

1 28057U 03049A   17086.76392486 +.00000020 +00000-0 +21387-4 0  9992
2 28057 098.3246 044.9829 0002127 076.6367 283.5057 14.35555608703832
Epoch (UTC): 27 March 2017 18:20:03
Eccentricity: 0.0002127
inclination: 98.3246°
perigee height: 772 km
apogee height: 775 km
right ascension of ascending node: 44.9829°
argument of perigee: 76.6367°
revolutions per day: 14.35555608
mean anomaly at epoch: 283.5057°
orbit number at epoch: 70383

The dashed part of the orbit path shows where the satellite is in the earth's shadow,  

DLR